Regional Weather Roundup
Issued by NWS Charleston, SC

Current Version | Previous Version | Graphics & Text | Print | Product List | Glossary On
Versions: 1 2 3 4 5 6 7 8 9 10 11 12 13 14 15 16 17 18 19 20 21 22 23 24 25 26 27 28 29 30 31 32 33 34 35 36 37 38 39 40 41 42 43 44 45 46 47 48 49 50
000
ASUS42 KCHS 271025
RWRCHS

REGIONAL WEATHER ROUNDUP
NATIONAL WEATHER SERVICE CHARLESTON SC
500 AM EST TUE JAN 27 2015

NOTE: "FAIR" INDICATES FEW OR NO CLOUDS BELOW 12,000 FEET WITH NO
SIGNIFICANT WEATHER AND/OR OBSTRUCTIONS TO VISIBILITY.

NOT ALL STATIONS ARE QUALITY CONTROLLED BY THE NATIONAL
WEATHER SERVICE. USE DATA WITH CAUTION...ESPECIALLY
DEWPOINT OBSERVATIONS.

SCZ027-030-031-034>040-042>050-271100-
...SOUTHEAST SOUTH CAROLINA...

CITY           SKY/WX    TMP DP  RH WIND       PRES   REMARKS
N CHARLESTON   CLEAR     37  29  72 W10       29.83R WCI  30
WATERFRONT PRK   N/A     39 N/A N/A W9G15       N/A  WCI  33
MOUNT PLEASANT FAIR     N/A N/A N/A W9        29.81S
PINOPOLIS      NOT AVBL
MONCKS CORNER  FAIR      37  28  70 CALM      29.82R
SUMMERVILLE    NOT AVBL
BEAUFORT MCAS  CLEAR     37  29  72 W8        29.86R WCI  31
BEAUFORT ARPT  FAIR      37  32  81 W10       29.85S WCI  30
HILTON HEAD IS NOT AVBL
WALTERBORO     SUNNY     36  28  75 W7        29.85R WCI  30
ALLENDALE      FAIR      34  28  80 CALM      29.84S

...SOUTHERN MIDLANDS AND PEE DEE...

CITY           SKY/WX    TMP DP  RH WIND       PRES   REMARKS
GEORGETOWN     NOT AVBL
KINGSTREE      NOT AVBL
ORANGEBURG     CLEAR     35  25  66 W9        29.82S WCI  28
BARNWELL         N/A     32  28  86 CALM      29.84S
AIKEN          FAIR      32  27  80 W5        29.85R WCI  27
MANNING        NOT AVBL
COLUMBIA       CLEAR     32  25  75 W7        29.82S WCI  26
SUMTER         CLEAR     33  23  66 W6        29.79R WCI  28
FLORENCE       MOCLDY    37  25  61 W8        29.78R WCI  31
MYRTLE BEACH   CLEAR     39  27  60 W12       29.78R WCI  32
N MYRTLE BEACH PTCLDY    40  30  67 VRB7      29.74R WCI  35

$$

GAZ063-065-086>088-099>101-113>116-118-119-134>141-150-271100-
...SOUTHEAST GEORGIA...

CITY           SKY/WX    TMP DP  RH WIND       PRES   REMARKS
SAVANNAH ARPT  CLEAR     39  27  62 W15G24    29.87S WCI  31
HUNTER AAF     CLEAR     40  28  63 W16G22    29.85S WCI  31
FORT STEWART   CLEAR     38  28  66 W9        29.88F WCI  32
STATESBORO     CLEAR     37  30  77 W10       29.87S WCI  29
SYLVANIA       SUNNY     38  30  73 NW9       29.86S WCI  31
CLAXTON        FAIR      36  32  87 W9        29.89F WCI  29

...CSRA...CENTRAL AND FAR SOUTHEAST GEORGIA...

CITY           SKY/WX    TMP DP  RH WIND       PRES   REMARKS
THOMSON        PTCLDY    35  31  86 W5G16     29.89S WCI  31
AUGUSTA-BUSH   CLEAR     34  26  72 W10       29.85S WCI  26
AUGUSTA-DANIEL CLEAR     36  26  67 VRB5      29.84S WCI  32
SWAINSBORO     FAIR      36  27  69 W6        29.90S WCI  31
VIDALIA        CLEAR     36  32  87 W3        29.91S
EASTMAN        FAIR      34  34 100 CALM      29.95S
HAZLEHURST     FAIR      36  35  99 CALM      29.91F
ALMA           CLEAR     37  32  82 CALM      29.93F
WAYCROSS       CLEAR     41  37  84 W5        29.93
JESUP          FAIR      41  34  75 CALM      29.92F
BAXLEY         FAIR      37  34  87 W3        29.91F
BRUNSWICK      CLEAR     41  32  70 W7        29.91F
SAINT SIMONS   CLEAR     41  31  67 W12       29.92S

$$

SCZ027-028-034-036>038-045-046-048>050-GAZ119-141-271100-
...LAKE AND SUPPLEMENTAL COASTAL OBSERVATIONS...

STATION/POSITION TIME  TEMP    WIND        PRES    WAVE   SWELL
                       AIR SEA DIR/SP/G            HT/PER HT/PER/DIR
                 (UTC) (F)     (DEG/KT/KT) (MB)    (FT/S) (FT/S/D)
UPR LAKE MARION  NOT AVBL
WINYAH BAY       1000   40     290/  8     1007.0S
LAKE MURRAY      1000   36     280/  9/ 11 1009.1S
ACE BASIN NERRS  NOT AVBL
FORT PULASKI     1000   42 53  280/ 19/ 20 1011.4S
SAPELO ISLAND    1000   41     280/ 10     1013.0R

$$

ANZ835-935-AMZ111-154-330-350-352-354-370-450-454-472-271100-
...C-MAN AND BUOY OBSERVATIONS...

STATION/POSITION TIME  TEMP    WIND        PRES    WAVE   SWELL
                       AIR SEA DIR/SP/G            HT/PER HT/PER/DIR
                 (UTC) (F)     (DEG/KT/KT) (MB)    (FT/S) (FT/S/D)
BUOY 41004       1000   47 68  310/ 27/ 33 1007.4R   8/ 6   2/14
BUOY 41008       1000   46 54  300/ 25/ 31 1011.5R   5/ 5
FOLLY BEACH CMAN 1000   37     280/  6/ 11 1010.3R
CAPERS NEARSHORE 0900   42     310/ 19/ 21   N/A
FRIPP NEARSHORE  0900   43     300/ 19/ 23   N/A


STATION/POSITION TIME  TEMP    WIND        PRES    WAVE   SWELL
                       AIR SEA DIR/SP/G            HT/PER HT/PER/DIR
                 (UTC) (F)     (DEG/KT/KT) (MB)    (FT/S) (FT/S/D)
5E ST. MARYS GA  1000      58                N/A     3/ 4
FRYING PAN BUOY  1000   49 66  300/ 21/ 25 1005.3R   7/ 8   3/210/ 8
BUOY 41025       1000   43 66  330/ 23/ 31 1001.8R   7/ 5   2/ 20/10
CAPE LOOKOUT NC  1000   42     350/ 16/ 20 1003.9R
BUOY 41002       0931   61 72  290/ 27/ 35 1001.1F  15/10   3/270/15
BUOY 41010       1000   62 76  300/ 25/ 35 1009.7R  13/ 9   8/320/ 9
ST AUGUSTINE FL  1000   42     330/ 11/ 16 1013.9F


$$



USA.gov is the U.S. government's official web portal to all federal, state and local government web resources and services.